Tracking 19854 objects as of 23-Sep-2019
HD Live streaming from Space Station
objects crossing your sky now

THORAD AGENA D DEB

Track THORAD AGENA D DEB now!
10-day predictions


NORAD ID: 4687
Int'l Code: 1970-025BL
Perigee: 1,057.4 km
Apogee: 1,099.1 km
Inclination: 99.5 °
Period: 106.6 minutes
Semi major axis: 7449 km
RCS: 0.2719 m2 (medium)
Launch date: April 8, 1970
Source: United States (US)
Launch site: AIR FORCE WESTERN TEST RANGE (AFWTR)

Note: This is SATELLITE DEBRIS
aabbcc
Your satellite tracking list
Your tracking list is empty




NASA's NSSDC Master Catalog

Two Line Element Set (TLE):
1  4687U 70025BL  19265.17170310  .00000008  00000-0  79297-4 0  9998
2  4687  99.5348 128.4119 0027943 325.0145 144.6398 13.50313015432653
Source of the keplerian elements: AFSPC